{"data":{"norad_id":67358,"intl_designator":"2026-003AA","name":"STARLINK-36466","alt_names":[],"object_type":"PAYLOAD","status":"ACTIVE","operator":null,"country":"US","launch_date":"2026-01-09","launch_site_code":"AFETR","launch_vehicle":null,"mission":null,"orbit_class":"UNKNOWN","rcs_meters":null,"size_class":null,"mass_kg":null,"dimensions":null,"purposes":["comms"],"wikipedia_slug":null,"has_3d_model":false,"image_url":null,"decayed_at":null,"tle_current":{"epoch":"2026-05-25T00:55:27.682176Z","epoch_age_seconds":71793,"freshness":"FRESH","line1":"1 67358U 26003AA  26145.03851484  .00015666  00000+0  57726-3 0  9994","line2":"2 67358  42.9995 155.6070 0001169 263.2950  96.7769 15.27600179 20506","mean_motion":15.27600179,"eccentricity":0.0001169,"inclination_deg":42.9995,"raan_deg":155.607,"arg_perigee_deg":263.295,"mean_anomaly_deg":96.7769,"bstar":0.00057726,"rev_number":2050,"period_min":94.265503486826,"perigee_km":482.1866079282,"apogee_km":483.79073911067,"semimajor_km":6861.1256735194,"source":"CELESTRAK","updated_at":"2026-05-25T13:38:21.527583Z"}}}